Volver al catálogo

OKEAN 1

ActivoCienciaPO
NORAD 19274·PAYLOAD·🇷🇺 Russia

Lanzado Jul 5, 1988 desde Plesetsk Cosmodrome

Loading…

Próximos Pases (próximas 24 horas)

TLE

ActualizadoSource: Space-Track

Época: Sep 14, 2026, 11:32 UTC

1 19274U 88056A   26257.48094716  .00007453  00000-0  21944-3 0  9993
2 19274  82.4662  70.6520 0011006 217.0830 142.9654 15.34815201 64014

Sigue OKEAN 1 en tiempo real con AllMySat

Download on the App Store